Regional Weather Roundup
Issued by NWS Albany, NY

Home | Current Version | Previous Version | Text Only | Print | Product List | Glossary On
Versions: 1 2 3 4 5 6 7 8 9 10 11 12 13 14 15 16 17 18 19 20 21 22 23 24 25 26 27 28 29 30 31 32 33 34 35 36 37 38 39 40 41 42 43 44 45 46 47 48 49 50
000
ASUS41 KALY 230010
RWRALY

NEW YORK STATE HOURLY WEATHER ROUNDUP
NATIONAL WEATHER SERVICE ALBANY NY
800 PM EDT TUE JUL 22 2014

NOTE: "FAIR" INDICATES FEW OR NO CLOUDS BELOW 12,000 FEET WITH NO
SIGNIFICANT WEATHER AND/OR NO OBSTRUCTIONS TO VISIBILITY.

NYZ032-033-038>043-046>054-057>066-NYZ062>081-230100-
EAST


CITY           SKY/WX    TMP DP  RH WIND       PRES   REMARKS
ALBANY         PTCLDY    85  69  58 S12       29.99F
GLENS FALLS    CLEAR     82  69  64 S7        29.98S
POUGHKEEPSIE   CLEAR     84  69  60 S5        30.03S
NEWBURGH       PTCLDY    82  70  65 W9        30.07S
MONTGOMERY     PTCLDY    81  69  67 SW7       30.04F
WHITE PLAINS   PTCLDY    76  65  68 S8        30.08S
ISLIP          CLEAR     75  63  66 SW14      30.08S
NEW YORK CITY  PTCLDY    80  66  62 S12       30.06S
CENTRAL PARK   CLEAR     80  66  62 S5        30.09S
$$

NYZ005>009-017-018-044>046-055-056-230100-
CENTRAL


CITY           SKY/WX    TMP DP  RH WIND       PRES   REMARKS
FULTON         CLEAR     82  71  69 CALM      29.97F
SYRACUSE       MOCLDY    86  68  54 S7        29.97S
ROME           MOCLDY    83  68  60 E3        30.00S
ELMIRA         MOCLDY    83  70  64 SW8       30.03R
BINGHAMTON     CLEAR     78  67  68 SW7       30.08F
MONTICELLO     PTCLDY    77  70  78 S7        30.11S
$$

NYZ026>034-041>043-230100-
NORTH


CITY           SKY/WX    TMP DP  RH WIND       PRES   REMARKS
WATERTOWN      PTCLDY    79  62  56 S3        29.97F
FORT DRUM      NOT AVBL
MASSENA        PTCLDY    79  66  64 SW8       29.94F
SARANAC LAKE   MOCLDY    76  61  59 SW5       30.02S
PLATTSBURGH    MOCLDY    79  72  79 CALM      29.93F
$$

NYZ001>004-010>016-019>021-230100-
WEST


CITY           SKY/WX    TMP DP  RH WIND       PRES   REMARKS
NIAGARA FALLS  CLEAR     81  64  56 SW10      29.97F
BUFFALO        CLEAR     80  62  54 SW10      30.00S
DUNKIRK        CLEAR     80  66  62 SW5       30.00F
JAMESTOWN      CLEAR     79  66  65 S6        30.06F
WELLSVILLE     CLEAR     81  64  56 SW5       30.11R
ROCHESTER      PTCLDY    84  66  54 W6        29.99S
PENN YAN       MOCLDY    83  70  64 S5        30.02S
$$

             KEY
       WCI = WIND CHILL INDEX
       VSB = VISIBILITY
       HX  = HEAT INDEX
$$


USA.gov is the U.S. government's official web portal to all federal, state and local government web resources and services.